Year,Month,Day,Hour,Minute,Value (Times are PST for temperature in C)
2021,04,16,00,00,12.70
2021,04,16,00,01,12.70
2021,04,16,00,02,12.70
2021,04,16,00,03,12.70
2021,04,16,00,04,12.70
2021,04,16,00,05,12.70
2021,04,16,00,06,12.70
2021,04,16,00,07,12.60
2021,04,16,00,08,12.60
2021,04,16,00,09,12.60
2021,04,16,00,10,12.60
2021,04,16,00,11,12.50
2021,04,16,00,12,12.50
2021,04,16,00,13,12.50
2021,04,16,00,14,12.40
2021,04,16,00,15,12.40
2021,04,16,00,16,12.30
2021,04,16,00,17,12.30
2021,04,16,00,18,12.30
2021,04,16,00,19,12.30
2021,04,16,00,20,12.20
2021,04,16,00,21,12.20
2021,04,16,00,22,12.20
2021,04,16,00,23,12.10
2021,04,16,00,24,12.10
2021,04,16,00,25,12.00
2021,04,16,00,26,12.00
2021,04,16,00,27,11.90
2021,04,16,00,28,11.90
2021,04,16,00,29,11.80
2021,04,16,00,30,11.70
2021,04,16,00,31,11.70
2021,04,16,00,32,11.70
2021,04,16,00,33,11.60
2021,04,16,00,34,11.60
2021,04,16,00,35,11.50
2021,04,16,00,36,11.50
2021,04,16,00,37,11.50
2021,04,16,00,38,11.40
2021,04,16,00,39,11.40
2021,04,16,00,40,11.40
2021,04,16,00,41,11.40
2021,04,16,00,42,11.40
2021,04,16,00,43,11.40
2021,04,16,00,44,11.30
2021,04,16,00,45,11.30
2021,04,16,00,46,11.30
2021,04,16,00,47,11.30
2021,04,16,00,48,11.30
2021,04,16,00,49,11.20
2021,04,16,00,50,11.20
2021,04,16,00,51,11.20
2021,04,16,00,52,11.20
2021,04,16,00,53,11.20
2021,04,16,00,54,11.10
2021,04,16,00,55,11.10
2021,04,16,00,56,11.10
2021,04,16,00,57,11.10
2021,04,16,00,58,11.00
2021,04,16,00,59,11.00
2021,04,16,01,00,10.90
2021,04,16,01,01,10.90
2021,04,16,01,02,10.80
2021,04,16,01,03,10.80
2021,04,16,01,04,10.70
2021,04,16,01,05,10.70
2021,04,16,01,06,10.60
2021,04,16,01,07,10.50
2021,04,16,01,08,10.50
2021,04,16,01,09,10.40
2021,04,16,01,10,10.40
2021,04,16,01,11,10.50
2021,04,16,01,12,10.60
2021,04,16,01,13,10.90
2021,04,16,01,14,11.20
2021,04,16,01,15,11.50
2021,04,16,01,16,11.70
2021,04,16,01,17,11.90
2021,04,16,01,18,12.10
2021,04,16,01,19,12.30
2021,04,16,01,20,12.50
2021,04,16,01,21,12.70
2021,04,16,01,22,12.80
2021,04,16,01,23,12.90
2021,04,16,01,24,13.10
2021,04,16,01,25,13.20
2021,04,16,01,26,13.20
2021,04,16,01,27,13.30
2021,04,16,01,28,13.30
2021,04,16,01,29,13.30
2021,04,16,01,30,13.30
2021,04,16,01,31,13.20
2021,04,16,01,32,13.20
2021,04,16,01,33,13.20
2021,04,16,01,34,13.10
2021,04,16,01,35,13.10
2021,04,16,01,36,13.10
2021,04,16,01,37,13.00
2021,04,16,01,38,12.90
2021,04,16,01,39,12.90
2021,04,16,01,40,12.80
2021,04,16,01,41,12.70
2021,04,16,01,42,12.60
2021,04,16,01,43,12.50
2021,04,16,01,44,12.40
2021,04,16,01,45,12.40
2021,04,16,01,46,12.30
2021,04,16,01,47,12.20
2021,04,16,01,48,12.10
2021,04,16,01,49,12.00
2021,04,16,01,50,11.90
2021,04,16,01,51,11.80
2021,04,16,01,52,11.70
2021,04,16,01,53,11.60
2021,04,16,01,54,11.50
2021,04,16,01,55,11.40
2021,04,16,01,56,11.40
2021,04,16,01,57,11.30
2021,04,16,01,58,11.30
2021,04,16,01,59,11.30
2021,04,16,02,00,11.30
2021,04,16,02,01,11.30
2021,04,16,02,02,11.40
2021,04,16,02,03,11.50
2021,04,16,02,04,11.50
2021,04,16,02,05,11.60
2021,04,16,02,06,11.70
2021,04,16,02,07,11.70
2021,04,16,02,08,11.70
2021,04,16,02,09,11.80
2021,04,16,02,10,11.90
2021,04,16,02,11,12.10
2021,04,16,02,12,12.20
2021,04,16,02,13,12.20
2021,04,16,02,14,12.20
2021,04,16,02,15,12.20
2021,04,16,02,16,12.10
2021,04,16,02,17,12.10
2021,04,16,02,18,12.00
2021,04,16,02,19,12.00
2021,04,16,02,20,11.90
2021,04,16,02,21,11.90
2021,04,16,02,22,11.80
2021,04,16,02,23,11.70
2021,04,16,02,24,11.60
2021,04,16,02,25,11.60
2021,04,16,02,26,11.50
2021,04,16,02,27,11.40
2021,04,16,02,28,11.40
2021,04,16,02,29,11.30
2021,04,16,02,30,11.20
2021,04,16,02,31,11.20
2021,04,16,02,32,11.20
2021,04,16,02,33,11.10
2021,04,16,02,34,11.10
2021,04,16,02,35,11.00
2021,04,16,02,36,10.90
2021,04,16,02,37,10.80
2021,04,16,02,38,10.80
2021,04,16,02,39,10.70
2021,04,16,02,40,10.60
2021,04,16,02,41,10.50
2021,04,16,02,42,10.50
2021,04,16,02,43,10.50
2021,04,16,02,44,10.50
2021,04,16,02,45,10.40
2021,04,16,02,46,10.40
2021,04,16,02,47,10.40
2021,04,16,02,48,10.40
2021,04,16,02,49,10.30
2021,04,16,02,50,10.40
2021,04,16,02,51,10.30
2021,04,16,02,52,10.30
2021,04,16,02,53,10.40
2021,04,16,02,54,10.30
2021,04,16,02,55,10.40
2021,04,16,02,56,10.30
2021,04,16,02,57,10.30
2021,04,16,02,58,10.30
2021,04,16,02,59,10.30
2021,04,16,03,00,10.20
2021,04,16,03,01,10.20
2021,04,16,03,02,10.20
2021,04,16,03,03,10.20
2021,04,16,03,04,10.20
2021,04,16,03,05,10.20
2021,04,16,03,06,10.20
2021,04,16,03,07,10.30
2021,04,16,03,08,10.40
2021,04,16,03,09,10.50
2021,04,16,03,10,10.60
2021,04,16,03,11,10.60
2021,04,16,03,12,10.70
2021,04,16,03,13,10.70
2021,04,16,03,14,10.70
2021,04,16,03,15,10.70
2021,04,16,03,16,10.70
2021,04,16,03,17,10.70
2021,04,16,03,18,10.70
2021,04,16,03,19,10.70
2021,04,16,03,20,10.70
2021,04,16,03,21,10.70
2021,04,16,03,22,10.70
2021,04,16,03,23,10.70
2021,04,16,03,24,10.70
2021,04,16,03,25,10.70
2021,04,16,03,26,10.70
2021,04,16,03,27,10.70
2021,04,16,03,28,10.70
2021,04,16,03,29,10.70
2021,04,16,03,30,10.70
2021,04,16,03,31,10.70
2021,04,16,03,32,10.70
2021,04,16,03,33,10.60
2021,04,16,03,34,10.60
2021,04,16,03,35,10.60
2021,04,16,03,36,10.60
2021,04,16,03,37,10.60
2021,04,16,03,38,10.60
2021,04,16,03,39,10.60
2021,04,16,03,40,10.50
2021,04,16,03,41,10.50
2021,04,16,03,42,10.50
2021,04,16,03,43,10.50
2021,04,16,03,44,10.50
2021,04,16,03,45,10.50
2021,04,16,03,46,10.40
2021,04,16,03,47,10.40
2021,04,16,03,48,10.40
2021,04,16,03,49,10.40
2021,04,16,03,50,10.40
2021,04,16,03,51,10.40
2021,04,16,03,52,10.40
2021,04,16,03,53,10.40
2021,04,16,03,54,10.40
2021,04,16,03,55,10.40
2021,04,16,03,56,10.50
2021,04,16,03,57,10.50
2021,04,16,03,58,10.40
2021,04,16,03,59,10.40
2021,04,16,04,00,10.40
2021,04,16,04,01,10.40
2021,04,16,04,02,10.40
2021,04,16,04,03,10.40
2021,04,16,04,04,10.40
2021,04,16,04,05,10.40
2021,04,16,04,06,10.40
2021,04,16,04,07,10.40
2021,04,16,04,08,10.40
2021,04,16,04,09,10.40
2021,04,16,04,10,10.40
2021,04,16,04,11,10.40
2021,04,16,04,12,10.40
2021,04,16,04,13,10.40
2021,04,16,04,14,10.40
2021,04,16,04,15,10.40
2021,04,16,04,16,10.40
2021,04,16,04,17,10.30
2021,04,16,04,18,10.30
2021,04,16,04,19,10.30
2021,04,16,04,20,10.30
2021,04,16,04,21,10.20
2021,04,16,04,22,10.20
2021,04,16,04,23,10.20
2021,04,16,04,24,10.10
2021,04,16,04,25,10.10
2021,04,16,04,26,10.00
2021,04,16,04,27,10.00
2021,04,16,04,28,9.90
2021,04,16,04,29,9.90
2021,04,16,04,30,9.80
2021,04,16,04,31,9.80
2021,04,16,04,32,9.80
2021,04,16,04,33,9.80
2021,04,16,04,34,9.70
2021,04,16,04,35,9.70
2021,04,16,04,36,9.70
2021,04,16,04,37,9.70
2021,04,16,04,38,9.70
2021,04,16,04,39,9.70
2021,04,16,04,40,9.70
2021,04,16,04,41,9.60
2021,04,16,04,42,9.70
2021,04,16,04,43,9.70
2021,04,16,04,44,9.70
2021,04,16,04,45,9.70
2021,04,16,04,46,9.70
2021,04,16,04,47,9.70
2021,04,16,04,48,9.70
2021,04,16,04,49,9.80
2021,04,16,04,50,9.80
2021,04,16,04,51,9.90
2021,04,16,04,52,9.90
2021,04,16,04,53,10.00
2021,04,16,04,54,10.00
2021,04,16,04,55,10.00
2021,04,16,04,56,10.00
2021,04,16,04,57,10.10
2021,04,16,04,58,10.10
2021,04,16,04,59,10.10
2021,04,16,05,00,10.10
2021,04,16,05,01,10.10
2021,04,16,05,02,10.10
2021,04,16,05,03,10.10
2021,04,16,05,04,10.10
2021,04,16,05,05,10.10
2021,04,16,05,06,10.10
2021,04,16,05,07,10.10
2021,04,16,05,08,10.10
2021,04,16,05,09,10.10
2021,04,16,05,10,10.00
2021,04,16,05,11,10.00
2021,04,16,05,12,10.00
2021,04,16,05,13,10.00
2021,04,16,05,14,10.00
2021,04,16,05,15,10.00
2021,04,16,05,16,10.00
2021,04,16,05,17,10.10
2021,04,16,05,18,10.10
2021,04,16,05,19,10.10
2021,04,16,05,20,10.10
2021,04,16,05,21,10.10
2021,04,16,05,22,10.10
2021,04,16,05,23,10.10
2021,04,16,05,24,10.10
2021,04,16,05,25,10.10
2021,04,16,05,26,10.10
2021,04,16,05,27,10.10
2021,04,16,05,28,10.10
2021,04,16,05,29,10.10
2021,04,16,05,30,10.10
2021,04,16,05,31,10.10
2021,04,16,05,32,10.10
2021,04,16,05,33,10.10
2021,04,16,05,34,10.10
2021,04,16,05,35,10.00
2021,04,16,05,36,10.00
2021,04,16,05,37,9.90
2021,04,16,05,38,9.90
2021,04,16,05,39,10.00
2021,04,16,05,40,10.10
2021,04,16,05,41,10.10
2021,04,16,05,42,10.10
2021,04,16,05,43,10.10
2021,04,16,05,44,10.20
2021,04,16,05,45,10.20
2021,04,16,05,46,10.20
2021,04,16,05,47,10.20
2021,04,16,05,48,10.20
2021,04,16,05,49,10.20
2021,04,16,05,50,10.20
2021,04,16,05,51,10.20
2021,04,16,05,52,10.20
2021,04,16,05,53,10.20
2021,04,16,05,54,10.20
2021,04,16,05,55,10.30
2021,04,16,05,56,10.30
2021,04,16,05,57,10.30
2021,04,16,05,58,10.40
2021,04,16,05,59,10.40
2021,04,16,06,00,10.40
2021,04,16,06,01,10.40
2021,04,16,06,02,10.40
2021,04,16,06,03,10.40
2021,04,16,06,04,10.30
2021,04,16,06,05,10.30
2021,04,16,06,06,10.30
2021,04,16,06,07,10.30
2021,04,16,06,08,10.30
2021,04,16,06,09,10.20
2021,04,16,06,10,10.20
2021,04,16,06,11,10.20
2021,04,16,06,12,10.20
2021,04,16,06,13,10.10
2021,04,16,06,14,10.10
2021,04,16,06,15,10.10
2021,04,16,06,16,10.10
2021,04,16,06,17,10.00
2021,04,16,06,18,10.00
2021,04,16,06,19,10.00
2021,04,16,06,20,10.00
2021,04,16,06,21,9.90
2021,04,16,06,22,9.90
2021,04,16,06,23,9.90
2021,04,16,06,24,9.80
2021,04,16,06,25,9.80
2021,04,16,06,26,9.80
2021,04,16,06,27,9.70
2021,04,16,06,28,9.70
2021,04,16,06,29,9.70
2021,04,16,06,30,9.70
2021,04,16,06,31,9.60
2021,04,16,06,32,9.60
2021,04,16,06,33,9.60
2021,04,16,06,34,9.60
2021,04,16,06,35,9.60
2021,04,16,06,36,9.60
2021,04,16,06,37,9.60
2021,04,16,06,38,9.60
2021,04,16,06,39,9.60
2021,04,16,06,40,9.60
2021,04,16,06,41,9.50
2021,04,16,06,42,9.50
2021,04,16,06,43,9.50
2021,04,16,06,44,9.40
2021,04,16,06,45,9.40
2021,04,16,06,46,9.40
2021,04,16,06,47,9.40
2021,04,16,06,48,9.30
2021,04,16,06,49,9.30
2021,04,16,06,50,9.30
2021,04,16,06,51,9.30
2021,04,16,06,52,9.20
2021,04,16,06,53,9.20
2021,04,16,06,54,9.20
2021,04,16,06,55,9.20
2021,04,16,06,56,9.20
2021,04,16,06,57,9.20
2021,04,16,06,58,9.10
2021,04,16,06,59,9.10
2021,04,16,07,00,9.10
2021,04,16,07,01,9.20
2021,04,16,07,02,9.20
2021,04,16,07,03,9.20
2021,04,16,07,04,9.20
2021,04,16,07,05,9.20
2021,04,16,07,06,9.20
2021,04,16,07,07,9.20
2021,04,16,07,08,9.30
2021,04,16,07,09,9.30
2021,04,16,07,10,9.30
2021,04,16,07,11,9.30
2021,04,16,07,12,9.30
2021,04,16,07,13,9.40
2021,04,16,07,14,9.40
2021,04,16,07,15,9.40
2021,04,16,07,16,9.50
2021,04,16,07,17,9.50
2021,04,16,07,18,9.50
2021,04,16,07,19,9.50
2021,04,16,07,20,9.50
2021,04,16,07,21,9.60
2021,04,16,07,22,9.50
2021,04,16,07,23,9.50
2021,04,16,07,24,9.50
2021,04,16,07,25,9.50
2021,04,16,07,26,9.50
2021,04,16,07,27,9.40
2021,04,16,07,28,9.40
2021,04,16,07,29,9.40
2021,04,16,07,30,9.40
2021,04,16,07,31,9.40
2021,04,16,07,32,9.40
2021,04,16,07,33,9.40
2021,04,16,07,34,9.40
2021,04,16,07,35,9.40
2021,04,16,07,36,9.40
2021,04,16,07,37,9.40
2021,04,16,07,38,9.40
2021,04,16,07,39,9.40
2021,04,16,07,40,9.30
2021,04,16,07,41,9.30
2021,04,16,07,42,9.30
2021,04,16,07,43,9.30
2021,04,16,07,44,9.30
2021,04,16,07,45,9.30
2021,04,16,07,46,9.30
2021,04,16,07,47,9.30
2021,04,16,07,48,9.40
2021,04,16,07,49,9.40
2021,04,16,07,50,9.40
2021,04,16,07,51,9.40
2021,04,16,07,52,9.40
2021,04,16,07,53,9.40
2021,04,16,07,54,9.40
2021,04,16,07,55,9.40
2021,04,16,07,56,9.50
2021,04,16,07,57,9.50
2021,04,16,07,58,9.50
2021,04,16,07,59,9.50
2021,04,16,08,00,9.60
2021,04,16,08,01,9.60
2021,04,16,08,02,9.60
2021,04,16,08,03,9.60
2021,04,16,08,04,9.60
2021,04,16,08,05,9.70
2021,04,16,08,06,9.70
2021,04,16,08,07,9.70
2021,04,16,08,08,9.70
2021,04,16,08,09,9.80
2021,04,16,08,10,9.80
2021,04,16,08,11,9.80
2021,04,16,08,12,9.80
2021,04,16,08,13,9.80
2021,04,16,08,14,9.80
2021,04,16,08,15,9.80
2021,04,16,08,16,9.90
2021,04,16,08,17,9.90
2021,04,16,08,18,9.90
2021,04,16,08,19,9.90
2021,04,16,08,20,9.90
2021,04,16,08,21,9.90
2021,04,16,08,22,10.00
2021,04,16,08,23,10.00
2021,04,16,08,24,10.00
2021,04,16,08,25,10.00
2021,04,16,08,26,10.10
2021,04,16,08,27,10.10
2021,04,16,08,28,10.10
2021,04,16,08,29,10.10
2021,04,16,08,30,10.10
2021,04,16,08,31,10.10
2021,04,16,08,32,10.20
2021,04,16,08,33,10.20
2021,04,16,08,34,10.20
2021,04,16,08,35,10.20
2021,04,16,08,36,10.20
2021,04,16,08,37,10.30
2021,04,16,08,38,10.20
2021,04,16,08,39,10.30
2021,04,16,08,40,10.30
2021,04,16,08,41,10.30
2021,04,16,08,42,10.30
2021,04,16,08,43,10.40
2021,04,16,08,44,10.40
2021,04,16,08,45,10.40
2021,04,16,08,46,10.40
2021,04,16,08,47,10.40
2021,04,16,08,48,10.40
2021,04,16,08,49,10.40
2021,04,16,08,50,10.50
2021,04,16,08,51,10.40
2021,04,16,08,52,10.50
2021,04,16,08,53,10.50
2021,04,16,08,54,10.50
2021,04,16,08,55,10.50
2021,04,16,08,56,10.60
2021,04,16,08,57,10.60
2021,04,16,08,58,10.60
2021,04,16,08,59,10.60
2021,04,16,09,00,10.60
2021,04,16,09,01,10.70
2021,04,16,09,02,10.70
2021,04,16,09,03,10.80
2021,04,16,09,04,10.80
2021,04,16,09,05,10.90
2021,04,16,09,06,10.90
2021,04,16,09,07,11.00
2021,04,16,09,08,11.00
2021,04,16,09,09,11.00
2021,04,16,09,10,11.00
2021,04,16,09,11,11.10
2021,04,16,09,12,11.10
2021,04,16,09,13,11.10
2021,04,16,09,14,11.10
2021,04,16,09,15,11.10
2021,04,16,09,16,11.10
2021,04,16,09,17,11.10
2021,04,16,09,18,11.20
2021,04,16,09,19,11.20
2021,04,16,09,20,11.20
2021,04,16,09,21,11.20
2021,04,16,09,22,11.30
2021,04,16,09,23,11.30
2021,04,16,09,24,11.30
2021,04,16,09,25,11.30
2021,04,16,09,26,11.40
2021,04,16,09,27,11.40
2021,04,16,09,28,11.40
2021,04,16,09,29,11.50
2021,04,16,09,30,11.60
2021,04,16,09,31,11.60
2021,04,16,09,32,11.70
2021,04,16,09,33,11.80
2021,04,16,09,34,11.80
2021,04,16,09,35,11.80
2021,04,16,09,36,11.90
2021,04,16,09,37,11.90
2021,04,16,09,38,11.90
2021,04,16,09,39,11.90
2021,04,16,09,40,11.90
2021,04,16,09,41,11.90
2021,04,16,09,42,12.00
2021,04,16,09,43,12.00
2021,04,16,09,44,12.00
2021,04,16,09,45,12.10
2021,04,16,09,46,12.10
2021,04,16,09,47,12.10
2021,04,16,09,48,12.10
2021,04,16,09,49,12.10
2021,04,16,09,50,12.10
2021,04,16,09,51,12.10
2021,04,16,09,52,12.20
2021,04,16,09,53,12.20
2021,04,16,09,54,12.30
2021,04,16,09,55,12.30
2021,04,16,09,56,12.30
2021,04,16,09,57,12.30
2021,04,16,09,58,12.40
2021,04,16,09,59,12.40
2021,04,16,10,00,12.40
2021,04,16,10,01,12.50
2021,04,16,10,02,12.50
2021,04,16,10,03,12.60
2021,04,16,10,04,12.60
2021,04,16,10,05,12.70
2021,04,16,10,06,12.70
2021,04,16,10,07,12.70
2021,04,16,10,08,12.70
2021,04,16,10,09,12.70
2021,04,16,10,10,12.80
2021,04,16,10,11,12.80
2021,04,16,10,12,12.80
2021,04,16,10,13,12.80
2021,04,16,10,14,12.90
2021,04,16,10,15,12.90
2021,04,16,10,16,13.00
2021,04,16,10,17,13.10
2021,04,16,10,18,13.20
2021,04,16,10,19,13.20
2021,04,16,10,20,13.30
2021,04,16,10,21,13.40
2021,04,16,10,22,13.50
2021,04,16,10,23,13.50
2021,04,16,10,24,13.60
2021,04,16,10,25,13.70
2021,04,16,10,26,13.80
2021,04,16,10,27,13.90
2021,04,16,10,28,14.00
2021,04,16,10,29,14.10
2021,04,16,10,30,14.20
2021,04,16,10,31,14.30
2021,04,16,10,32,14.50
2021,04,16,10,33,14.60
2021,04,16,10,34,14.80
2021,04,16,10,35,15.00
2021,04,16,10,36,15.10
2021,04,16,10,37,15.20
2021,04,16,10,38,15.30
2021,04,16,10,39,15.40
2021,04,16,10,40,15.40
2021,04,16,10,41,15.50
2021,04,16,10,42,15.60
2021,04,16,10,43,15.70
2021,04,16,10,44,15.70
2021,04,16,10,45,15.80
2021,04,16,10,46,15.80
2021,04,16,10,47,15.90
2021,04,16,10,48,16.00
2021,04,16,10,49,16.10
2021,04,16,10,50,16.20
2021,04,16,10,51,16.20
2021,04,16,10,52,16.30
2021,04,16,10,53,16.40
2021,04,16,10,54,16.40
2021,04,16,10,55,16.40
2021,04,16,10,56,16.50
2021,04,16,10,57,16.50
2021,04,16,10,58,16.50
2021,04,16,10,59,16.40
2021,04,16,11,00,16.40
2021,04,16,11,01,16.50
2021,04,16,11,02,16.50
2021,04,16,11,03,16.50
2021,04,16,11,04,16.50
2021,04,16,11,05,16.50
2021,04,16,11,06,16.50
2021,04,16,11,07,16.60
2021,04,16,11,08,16.60
2021,04,16,11,09,16.60
2021,04,16,11,10,16.70
2021,04,16,11,11,16.70
2021,04,16,11,12,16.80
2021,04,16,11,13,16.80
2021,04,16,11,14,16.90
2021,04,16,11,15,17.00
2021,04,16,11,16,17.00
2021,04,16,11,17,17.10
2021,04,16,11,18,17.20
2021,04,16,11,19,17.30
2021,04,16,11,20,17.40
2021,04,16,11,21,17.50
2021,04,16,11,22,17.60
2021,04,16,11,23,17.70
2021,04,16,11,24,17.80
2021,04,16,11,25,17.90
2021,04,16,11,26,17.90
2021,04,16,11,27,17.90
2021,04,16,11,28,17.90
2021,04,16,11,29,17.90
2021,04,16,11,30,17.90
2021,04,16,11,31,17.80
2021,04,16,11,32,17.80
2021,04,16,11,33,17.80
2021,04,16,11,34,17.70
2021,04,16,11,35,17.60
2021,04,16,11,36,17.60
2021,04,16,11,37,17.60
2021,04,16,11,38,17.60
2021,04,16,11,39,17.60
2021,04,16,11,40,17.60
2021,04,16,11,41,17.60
2021,04,16,11,42,17.50
2021,04,16,11,43,17.60
2021,04,16,11,44,17.60
2021,04,16,11,45,17.60
2021,04,16,11,46,17.60
2021,04,16,11,47,17.60
2021,04,16,11,48,17.60
2021,04,16,11,49,17.60
2021,04,16,11,50,17.60
2021,04,16,11,51,17.70
2021,04,16,11,52,17.70
2021,04,16,11,53,17.80
2021,04,16,11,54,17.80
2021,04,16,11,55,17.80
2021,04,16,11,56,17.90
2021,04,16,11,57,17.90
2021,04,16,11,58,18.00
2021,04,16,11,59,18.10
2021,04,16,12,00,18.10
2021,04,16,12,01,18.10
2021,04,16,12,02,18.20
2021,04,16,12,03,18.20
2021,04,16,12,04,18.30
2021,04,16,12,05,18.40
2021,04,16,12,06,18.50
2021,04,16,12,07,18.50
2021,04,16,12,08,18.60
2021,04,16,12,09,18.70
2021,04,16,12,10,18.70
2021,04,16,12,11,18.70
2021,04,16,12,12,18.70
2021,04,16,12,13,18.70
2021,04,16,12,14,18.70
2021,04,16,12,15,18.70
2021,04,16,12,16,18.70
2021,04,16,12,17,18.70
2021,04,16,12,18,18.70
2021,04,16,12,19,18.70
2021,04,16,12,20,18.80
2021,04,16,12,21,18.80
2021,04,16,12,22,18.70
2021,04,16,12,23,18.70
2021,04,16,12,24,18.80
2021,04,16,12,25,18.80
2021,04,16,12,26,18.80
2021,04,16,12,27,18.80
2021,04,16,12,28,18.90
2021,04,16,12,29,18.90
2021,04,16,12,30,18.90
2021,04,16,12,31,18.90
2021,04,16,12,32,18.90
2021,04,16,12,33,18.90
2021,04,16,12,34,19.00
2021,04,16,12,35,19.00
2021,04,16,12,36,19.00
2021,04,16,12,37,19.10
2021,04,16,12,38,19.10
2021,04,16,12,39,19.20
2021,04,16,12,40,19.30
2021,04,16,12,41,19.30
2021,04,16,12,42,19.40
2021,04,16,12,43,19.60
2021,04,16,12,44,19.60
2021,04,16,12,45,19.70
2021,04,16,12,46,19.80
2021,04,16,12,47,19.80
2021,04,16,12,48,19.80
2021,04,16,12,49,19.90
2021,04,16,12,50,19.90
2021,04,16,12,51,19.90
2021,04,16,12,52,19.90
2021,04,16,12,53,19.80
2021,04,16,12,54,19.80
2021,04,16,12,55,19.70
2021,04,16,12,56,19.60
2021,04,16,12,57,19.50
2021,04,16,12,58,19.50
2021,04,16,12,59,19.40
2021,04,16,13,00,19.50
2021,04,16,13,01,19.50
2021,04,16,13,02,19.50
2021,04,16,13,03,19.50
2021,04,16,13,04,19.50
2021,04,16,13,05,19.60
2021,04,16,13,06,19.60
2021,04,16,13,07,19.60
2021,04,16,13,08,19.70
2021,04,16,13,09,19.70
2021,04,16,13,10,19.70
2021,04,16,13,11,19.70
2021,04,16,13,12,19.70
2021,04,16,13,13,19.70
2021,04,16,13,14,19.70
2021,04,16,13,15,19.70
2021,04,16,13,16,19.80
2021,04,16,13,17,19.90
2021,04,16,13,18,20.00
2021,04,16,13,19,20.00
2021,04,16,13,20,20.10
2021,04,16,13,21,20.10
2021,04,16,13,22,20.10
2021,04,16,13,23,20.10
2021,04,16,13,24,20.10
2021,04,16,13,25,20.10
2021,04,16,13,26,20.00
2021,04,16,13,27,20.00
2021,04,16,13,28,19.90
2021,04,16,13,29,19.90
2021,04,16,13,30,19.90
2021,04,16,13,31,19.90
2021,04,16,13,32,20.00
2021,04,16,13,33,20.00
2021,04,16,13,34,20.10
2021,04,16,13,35,20.20
2021,04,16,13,36,20.20
2021,04,16,13,37,20.30
2021,04,16,13,38,20.40
2021,04,16,13,39,20.40
2021,04,16,13,40,20.50
2021,04,16,13,41,20.60
2021,04,16,13,42,20.60
2021,04,16,13,43,20.60
2021,04,16,13,44,20.60
2021,04,16,13,45,20.50
2021,04,16,13,46,20.40
2021,04,16,13,47,20.40
2021,04,16,13,48,20.30
2021,04,16,13,49,20.20
2021,04,16,13,50,20.10
2021,04,16,13,51,20.10
2021,04,16,13,52,20.10
2021,04,16,13,53,20.00
2021,04,16,13,54,20.00
2021,04,16,13,55,20.00
2021,04,16,13,56,19.90
2021,04,16,13,57,19.90
2021,04,16,13,58,19.90
2021,04,16,13,59,19.90
2021,04,16,14,00,19.90
2021,04,16,14,01,19.90
2021,04,16,14,02,20.00
2021,04,16,14,03,20.00
2021,04,16,14,04,20.10
2021,04,16,14,05,20.20
2021,04,16,14,06,20.30
2021,04,16,14,07,20.30
2021,04,16,14,08,20.40
2021,04,16,14,09,20.40
2021,04,16,14,10,20.40
2021,04,16,14,11,20.50
2021,04,16,14,12,20.50
2021,04,16,14,13,20.50
2021,04,16,14,14,20.50
2021,04,16,14,15,20.40
2021,04,16,14,16,20.40
2021,04,16,14,17,20.40
2021,04,16,14,18,20.40
2021,04,16,14,19,20.50
2021,04,16,14,20,20.50
2021,04,16,14,21,20.40
2021,04,16,14,22,20.40
2021,04,16,14,23,20.30
2021,04,16,14,24,20.30
2021,04,16,14,25,20.30
2021,04,16,14,26,20.30
2021,04,16,14,27,20.30
2021,04,16,14,28,20.30
2021,04,16,14,29,20.40
2021,04,16,14,30,20.40
2021,04,16,14,31,20.40
2021,04,16,14,32,20.40
2021,04,16,14,33,20.40
2021,04,16,14,34,20.50
2021,04,16,14,35,20.40
2021,04,16,14,36,20.50
2021,04,16,14,37,20.50
2021,04,16,14,38,20.50
2021,04,16,14,39,20.50
2021,04,16,14,40,20.60
2021,04,16,14,41,20.60
2021,04,16,14,42,20.60
2021,04,16,14,43,20.70
2021,04,16,14,44,20.80
2021,04,16,14,45,20.90
2021,04,16,14,46,20.90
2021,04,16,14,47,20.90
2021,04,16,14,48,21.00
2021,04,16,14,49,21.00
2021,04,16,14,50,21.00
2021,04,16,14,51,21.00
2021,04,16,14,52,21.00
2021,04,16,14,53,21.10
2021,04,16,14,54,21.10
2021,04,16,14,55,21.10
2021,04,16,14,56,21.00
2021,04,16,14,57,20.90
2021,04,16,14,58,20.90
2021,04,16,14,59,20.80
2021,04,16,15,00,20.80
2021,04,16,15,01,20.80
2021,04,16,15,02,20.80
2021,04,16,15,03,20.80
2021,04,16,15,04,20.80
2021,04,16,15,05,20.70
2021,04,16,15,06,20.70
2021,04,16,15,07,20.70
2021,04,16,15,08,20.70
2021,04,16,15,09,20.70
2021,04,16,15,10,20.70
2021,04,16,15,11,20.80
2021,04,16,15,12,20.80
2021,04,16,15,13,20.80
2021,04,16,15,14,20.80
2021,04,16,15,15,20.80
2021,04,16,15,16,20.80
2021,04,16,15,17,20.80
2021,04,16,15,18,20.80
2021,04,16,15,19,20.90
2021,04,16,15,20,20.90
2021,04,16,15,21,20.90
2021,04,16,15,22,20.90
2021,04,16,15,23,20.90
2021,04,16,15,24,20.80
2021,04,16,15,25,20.80
2021,04,16,15,26,20.70
2021,04,16,15,27,20.70
2021,04,16,15,28,20.70
2021,04,16,15,29,20.70
2021,04,16,15,30,20.70
2021,04,16,15,31,20.70
2021,04,16,15,32,20.80
2021,04,16,15,33,20.80
2021,04,16,15,34,20.80
2021,04,16,15,35,20.80
2021,04,16,15,36,20.90
2021,04,16,15,37,20.90
2021,04,16,15,38,20.90
2021,04,16,15,39,20.90
2021,04,16,15,40,20.90
2021,04,16,15,41,20.90
2021,04,16,15,42,21.00
2021,04,16,15,43,20.90
2021,04,16,15,44,20.90
2021,04,16,15,45,20.90
2021,04,16,15,46,20.90
2021,04,16,15,47,21.00
2021,04,16,15,48,21.00
2021,04,16,15,49,21.10
2021,04,16,15,50,21.10
2021,04,16,15,51,21.20
2021,04,16,15,52,21.20
2021,04,16,15,53,21.30
2021,04,16,15,54,21.30
2021,04,16,15,55,21.30
2021,04,16,15,56,21.40
2021,04,16,15,57,21.40
2021,04,16,15,58,21.50
2021,04,16,15,59,21.50
2021,04,16,16,00,21.60
2021,04,16,16,01,21.60
2021,04,16,16,02,21.70
2021,04,16,16,03,21.70
2021,04,16,16,04,21.70
2021,04,16,16,05,21.70
2021,04,16,16,06,21.70
2021,04,16,16,07,21.70
2021,04,16,16,08,21.70
2021,04,16,16,09,21.70
2021,04,16,16,10,21.60
2021,04,16,16,11,21.60
2021,04,16,16,12,21.60
2021,04,16,16,13,21.70
2021,04,16,16,14,21.70
2021,04,16,16,15,21.70
2021,04,16,16,16,21.80
2021,04,16,16,17,21.80
2021,04,16,16,18,21.80
2021,04,16,16,19,21.80
2021,04,16,16,20,21.80
2021,04,16,16,21,21.80
2021,04,16,16,22,21.80
2021,04,16,16,23,21.80
2021,04,16,16,24,21.80
2021,04,16,16,25,21.80
2021,04,16,16,26,21.70
2021,04,16,16,27,21.70
2021,04,16,16,28,21.70
2021,04,16,16,29,21.60
2021,04,16,16,30,21.60
2021,04,16,16,31,21.60
2021,04,16,16,32,21.50
2021,04,16,16,33,21.50
2021,04,16,16,34,21.50
2021,04,16,16,35,21.50
2021,04,16,16,36,21.50
2021,04,16,16,37,21.60
2021,04,16,16,38,21.60
2021,04,16,16,39,21.60
2021,04,16,16,40,21.60
2021,04,16,16,41,21.60
2021,04,16,16,42,21.60
2021,04,16,16,43,21.70
2021,04,16,16,44,21.60
2021,04,16,16,45,21.60
2021,04,16,16,46,21.60
2021,04,16,16,47,21.50
2021,04,16,16,48,21.50
2021,04,16,16,49,21.40
2021,04,16,16,50,21.40
2021,04,16,16,51,21.40
2021,04,16,16,52,21.40
2021,04,16,16,53,21.40
2021,04,16,16,54,21.40
2021,04,16,16,55,21.40
2021,04,16,16,56,21.50
2021,04,16,16,57,21.50
2021,04,16,16,58,21.60
2021,04,16,16,59,21.50
2021,04,16,17,00,21.50
2021,04,16,17,01,21.50
2021,04,16,17,02,21.50
2021,04,16,17,03,21.60
2021,04,16,17,04,21.60
2021,04,16,17,05,21.50
2021,04,16,17,06,21.50
2021,04,16,17,07,21.50
2021,04,16,17,08,21.50
2021,04,16,17,09,21.50
2021,04,16,17,10,21.50
2021,04,16,17,11,21.60
2021,04,16,17,12,21.60
2021,04,16,17,13,21.70
2021,04,16,17,14,21.70
2021,04,16,17,15,21.80
2021,04,16,17,16,21.80
2021,04,16,17,17,21.90
2021,04,16,17,18,21.90
2021,04,16,17,19,21.90
2021,04,16,17,20,21.90
2021,04,16,17,21,21.90
2021,04,16,17,22,21.90
2021,04,16,17,23,21.90
2021,04,16,17,24,21.90
2021,04,16,17,25,21.90